Year,Month,Day,Hour,Minute,Value (Times are PST for temperature in C)
2009,08,04,00,00,21.60
2009,08,04,00,01,21.60
2009,08,04,00,02,21.60
2009,08,04,00,03,21.60
2009,08,04,00,04,21.60
2009,08,04,00,05,21.60
2009,08,04,00,06,21.60
2009,08,04,00,07,21.60
2009,08,04,00,08,21.60
2009,08,04,00,09,21.60
2009,08,04,00,10,21.60
2009,08,04,00,11,21.60
2009,08,04,00,12,21.60
2009,08,04,00,13,21.50
2009,08,04,00,14,21.50
2009,08,04,00,15,21.50
2009,08,04,00,16,21.50
2009,08,04,00,17,21.40
2009,08,04,00,18,21.50
2009,08,04,00,19,21.50
2009,08,04,00,20,21.50
2009,08,04,00,21,21.50
2009,08,04,00,22,21.50
2009,08,04,00,23,21.50
2009,08,04,00,24,21.50
2009,08,04,00,25,21.50
2009,08,04,00,26,21.60
2009,08,04,00,27,21.50
2009,08,04,00,28,21.50
2009,08,04,00,29,21.50
2009,08,04,00,30,21.50
2009,08,04,00,31,21.50
2009,08,04,00,32,21.50
2009,08,04,00,33,21.50
2009,08,04,00,34,21.40
2009,08,04,00,35,21.40
2009,08,04,00,36,21.40
2009,08,04,00,37,21.40
2009,08,04,00,38,21.40
2009,08,04,00,39,21.40
2009,08,04,00,40,21.40
2009,08,04,00,41,21.40
2009,08,04,00,42,21.40
2009,08,04,00,43,21.40
2009,08,04,00,44,21.40
2009,08,04,00,45,21.40
2009,08,04,00,46,21.40
2009,08,04,00,47,21.40
2009,08,04,00,48,21.40
2009,08,04,00,49,21.40
2009,08,04,00,50,21.40
2009,08,04,00,51,21.40
2009,08,04,00,52,21.40
2009,08,04,00,53,21.40
2009,08,04,00,54,21.40
2009,08,04,00,55,21.40
2009,08,04,00,56,21.30
2009,08,04,00,57,21.30
2009,08,04,00,58,21.30
2009,08,04,00,59,21.30
2009,08,04,01,00,21.30
2009,08,04,01,01,21.30
2009,08,04,01,02,21.30
2009,08,04,01,03,21.30
2009,08,04,01,04,21.30
2009,08,04,01,05,21.30
2009,08,04,01,06,21.30
2009,08,04,01,07,21.30
2009,08,04,01,08,21.30
2009,08,04,01,09,21.30
2009,08,04,01,10,21.30
2009,08,04,01,11,21.30
2009,08,04,01,12,21.30
2009,08,04,01,13,21.30
2009,08,04,01,14,21.30
2009,08,04,01,15,21.30
2009,08,04,01,16,21.30
2009,08,04,01,17,21.30
2009,08,04,01,18,21.20
2009,08,04,01,19,21.20
2009,08,04,01,20,21.20
2009,08,04,01,21,21.20
2009,08,04,01,22,21.10
2009,08,04,01,23,21.10
2009,08,04,01,24,21.10
2009,08,04,01,25,21.00
2009,08,04,01,26,20.80
2009,08,04,01,27,20.70
2009,08,04,01,28,20.50
2009,08,04,01,29,20.30
2009,08,04,01,30,20.20
2009,08,04,01,31,20.00
2009,08,04,01,32,19.90
2009,08,04,01,33,19.80
2009,08,04,01,34,19.70
2009,08,04,01,35,19.60
2009,08,04,01,36,19.50
2009,08,04,01,37,19.40
2009,08,04,01,38,19.40
2009,08,04,01,39,19.30
2009,08,04,01,40,19.20
2009,08,04,01,41,19.20
2009,08,04,01,42,19.10
2009,08,04,01,43,19.10
2009,08,04,01,44,19.10
2009,08,04,01,45,19.00
2009,08,04,01,46,19.00
2009,08,04,01,47,19.00
2009,08,04,01,48,19.10
2009,08,04,01,49,19.10
2009,08,04,01,50,19.20
2009,08,04,01,51,19.20
2009,08,04,01,52,19.20
2009,08,04,01,53,19.20
2009,08,04,01,54,19.30
2009,08,04,01,55,19.30
2009,08,04,01,56,19.30
2009,08,04,01,57,19.40
2009,08,04,01,58,19.40
2009,08,04,01,59,19.40
2009,08,04,02,00,19.50
2009,08,04,02,01,19.50
2009,08,04,02,02,19.50
2009,08,04,02,03,19.40
2009,08,04,02,04,19.50
2009,08,04,02,05,19.40
2009,08,04,02,06,19.50
2009,08,04,02,07,19.50
2009,08,04,02,08,19.50
2009,08,04,02,09,19.50
2009,08,04,02,10,19.50
2009,08,04,02,11,19.50
2009,08,04,02,12,19.40
2009,08,04,02,13,19.40
2009,08,04,02,14,19.40
2009,08,04,02,15,19.40
2009,08,04,02,16,19.40
2009,08,04,02,17,19.40
2009,08,04,02,18,19.40
2009,08,04,02,19,19.40
2009,08,04,02,20,19.40
2009,08,04,02,21,19.40
2009,08,04,02,22,19.30
2009,08,04,02,23,19.30
2009,08,04,02,24,19.30
2009,08,04,02,25,19.30
2009,08,04,02,26,19.30
2009,08,04,02,27,19.30
2009,08,04,02,28,19.30
2009,08,04,02,29,19.30
2009,08,04,02,30,19.30
2009,08,04,02,31,19.30
2009,08,04,02,32,19.20
2009,08,04,02,33,19.20
2009,08,04,02,34,19.20
2009,08,04,02,35,19.20
2009,08,04,02,36,19.20
2009,08,04,02,37,19.20
2009,08,04,02,38,19.20
2009,08,04,02,39,19.10
2009,08,04,02,40,19.10
2009,08,04,02,41,19.10
2009,08,04,02,42,19.10
2009,08,04,02,43,19.10
2009,08,04,02,44,19.10
2009,08,04,02,45,19.10
2009,08,04,02,46,19.10
2009,08,04,02,47,19.10
2009,08,04,02,48,19.10
2009,08,04,02,49,19.00
2009,08,04,02,50,19.00
2009,08,04,02,51,18.90
2009,08,04,02,52,18.80
2009,08,04,02,53,18.70
2009,08,04,02,54,18.70
2009,08,04,02,55,18.60
2009,08,04,02,56,18.60
2009,08,04,02,57,18.60
2009,08,04,02,58,18.70
2009,08,04,02,59,18.70
2009,08,04,03,00,18.70
2009,08,04,03,01,18.60
2009,08,04,03,02,18.60
2009,08,04,03,03,18.50
2009,08,04,03,04,18.40
2009,08,04,03,05,18.40
2009,08,04,03,06,18.50
2009,08,04,03,07,18.50
2009,08,04,03,08,18.50
2009,08,04,03,09,18.50
2009,08,04,03,10,18.50
2009,08,04,03,11,18.50
2009,08,04,03,12,18.60
2009,08,04,03,13,18.60
2009,08,04,03,14,18.60
2009,08,04,03,15,18.60
2009,08,04,03,16,18.60
2009,08,04,03,17,18.60
2009,08,04,03,18,18.60
2009,08,04,03,19,18.60
2009,08,04,03,20,18.60
2009,08,04,03,21,18.60
2009,08,04,03,22,18.60
2009,08,04,03,23,18.50
2009,08,04,03,24,18.50
2009,08,04,03,25,18.40
2009,08,04,03,26,18.40
2009,08,04,03,27,18.40
2009,08,04,03,28,18.40
2009,08,04,03,29,18.30
2009,08,04,03,30,18.30
2009,08,04,03,31,18.40
2009,08,04,03,32,18.40
2009,08,04,03,33,18.40
2009,08,04,03,34,18.40
2009,08,04,03,35,18.40
2009,08,04,03,36,18.40
2009,08,04,03,37,18.40
2009,08,04,03,38,18.40
2009,08,04,03,39,18.40
2009,08,04,03,40,18.40
2009,08,04,03,41,18.40
2009,08,04,03,42,18.40
2009,08,04,03,43,18.40
2009,08,04,03,44,18.40
2009,08,04,03,45,18.40
2009,08,04,03,46,18.40
2009,08,04,03,47,18.30
2009,08,04,03,48,18.30
2009,08,04,03,49,18.30
2009,08,04,03,50,18.30
2009,08,04,03,51,18.30
2009,08,04,03,52,18.20
2009,08,04,03,53,18.20
2009,08,04,03,54,18.20
2009,08,04,03,55,18.20
2009,08,04,03,56,18.20
2009,08,04,03,57,18.20
2009,08,04,03,58,18.30
2009,08,04,03,59,18.30
2009,08,04,04,00,18.30
2009,08,04,04,01,18.40
2009,08,04,04,02,18.40
2009,08,04,04,03,18.40
2009,08,04,04,04,18.40
2009,08,04,04,05,18.40
2009,08,04,04,06,18.40
2009,08,04,04,07,18.40
2009,08,04,04,08,18.40
2009,08,04,04,09,18.40
2009,08,04,04,10,18.30
2009,08,04,04,11,18.30
2009,08,04,04,12,18.20
2009,08,04,04,13,18.20
2009,08,04,04,14,18.20
2009,08,04,04,15,18.20
2009,08,04,04,16,18.10
2009,08,04,04,17,18.10
2009,08,04,04,18,18.10
2009,08,04,04,19,18.00
2009,08,04,04,20,18.00
2009,08,04,04,21,18.00
2009,08,04,04,22,18.00
2009,08,04,04,23,17.90
2009,08,04,04,24,17.90
2009,08,04,04,25,17.90
2009,08,04,04,26,17.90
2009,08,04,04,27,17.80
2009,08,04,04,28,17.80
2009,08,04,04,29,17.80
2009,08,04,04,30,17.80
2009,08,04,04,31,17.80
2009,08,04,04,32,17.80
2009,08,04,04,33,17.70
2009,08,04,04,34,17.70
2009,08,04,04,35,17.70
2009,08,04,04,36,17.70
2009,08,04,04,37,17.60
2009,08,04,04,38,17.60
2009,08,04,04,39,17.60
2009,08,04,04,40,17.50
2009,08,04,04,41,17.50
2009,08,04,04,42,17.40
2009,08,04,04,43,17.40
2009,08,04,04,44,17.30
2009,08,04,04,45,17.30
2009,08,04,04,46,17.30
2009,08,04,04,47,17.20
2009,08,04,04,48,17.20
2009,08,04,04,49,17.20
2009,08,04,04,50,17.20
2009,08,04,04,51,17.20
2009,08,04,04,52,17.20
2009,08,04,04,53,17.20
2009,08,04,04,54,17.20
2009,08,04,04,55,17.20
2009,08,04,04,56,17.20
2009,08,04,04,57,17.20
2009,08,04,04,58,17.20
2009,08,04,04,59,17.20
2009,08,04,05,00,17.20
2009,08,04,05,01,17.20
2009,08,04,05,02,17.20
2009,08,04,05,03,17.20
2009,08,04,05,04,17.10
2009,08,04,05,05,17.10
2009,08,04,05,06,17.10
2009,08,04,05,07,17.10
2009,08,04,05,08,17.10
2009,08,04,05,09,17.00
2009,08,04,05,10,17.00
2009,08,04,05,11,16.90
2009,08,04,05,12,16.90
2009,08,04,05,13,16.80
2009,08,04,05,14,16.80
2009,08,04,05,15,16.80
2009,08,04,05,16,16.70
2009,08,04,05,17,16.70
2009,08,04,05,18,16.70
2009,08,04,05,19,16.70
2009,08,04,05,20,16.70
2009,08,04,05,21,16.70
2009,08,04,05,22,16.70
2009,08,04,05,23,16.70
2009,08,04,05,24,16.70
2009,08,04,05,25,16.70
2009,08,04,05,26,16.70
2009,08,04,05,27,16.70
2009,08,04,05,28,16.70
2009,08,04,05,29,16.80
2009,08,04,05,30,16.80
2009,08,04,05,31,16.80
2009,08,04,05,32,16.80
2009,08,04,05,33,16.80
2009,08,04,05,34,16.80
2009,08,04,05,35,16.80
2009,08,04,05,36,16.90
2009,08,04,05,37,16.90
2009,08,04,05,38,16.90
2009,08,04,05,39,17.00
2009,08,04,05,40,17.00
2009,08,04,05,41,17.10
2009,08,04,05,42,17.20
2009,08,04,05,43,17.20
2009,08,04,05,44,17.20
2009,08,04,05,45,17.30
2009,08,04,05,46,17.30
2009,08,04,05,47,17.30
2009,08,04,05,48,17.30
2009,08,04,05,49,17.40
2009,08,04,05,50,17.40
2009,08,04,05,51,17.40
2009,08,04,05,52,17.40
2009,08,04,05,53,17.40
2009,08,04,05,54,17.40
2009,08,04,05,55,17.40
2009,08,04,05,56,17.40
2009,08,04,05,57,17.40
2009,08,04,05,58,17.40
2009,08,04,05,59,17.40
2009,08,04,06,00,17.40
2009,08,04,06,01,17.40
2009,08,04,06,02,17.40
2009,08,04,06,03,17.40
2009,08,04,06,04,17.40
2009,08,04,06,05,17.40
2009,08,04,06,06,17.40
2009,08,04,06,07,17.40
2009,08,04,06,08,17.40
2009,08,04,06,09,17.40
2009,08,04,06,10,17.40
2009,08,04,06,11,17.40
2009,08,04,06,12,17.40
2009,08,04,06,13,17.40
2009,08,04,06,14,17.40
2009,08,04,06,15,17.40
2009,08,04,06,16,17.40
2009,08,04,06,17,17.30
2009,08,04,06,18,17.30
2009,08,04,06,19,17.30
2009,08,04,06,20,17.30
2009,08,04,06,21,17.30
2009,08,04,06,22,17.30
2009,08,04,06,23,17.30
2009,08,04,06,24,17.30
2009,08,04,06,25,17.30
2009,08,04,06,26,17.30
2009,08,04,06,27,17.30
2009,08,04,06,28,17.30
2009,08,04,06,29,17.30
2009,08,04,06,30,17.30
2009,08,04,06,31,17.30
2009,08,04,06,32,17.30
2009,08,04,06,33,17.30
2009,08,04,06,34,17.30
2009,08,04,06,35,17.30
2009,08,04,06,36,17.30
2009,08,04,06,37,17.30
2009,08,04,06,38,17.30
2009,08,04,06,39,17.30
2009,08,04,06,40,17.30
2009,08,04,06,41,17.40
2009,08,04,06,42,17.40
2009,08,04,06,43,17.40
2009,08,04,06,44,17.40
2009,08,04,06,45,17.40
2009,08,04,06,46,17.40
2009,08,04,06,47,17.40
2009,08,04,06,48,17.40
2009,08,04,06,49,17.40
2009,08,04,06,50,17.40
2009,08,04,06,51,17.40
2009,08,04,06,52,17.40
2009,08,04,06,53,17.40
2009,08,04,06,54,17.40
2009,08,04,06,55,17.40
2009,08,04,06,56,17.40
2009,08,04,06,57,17.40
2009,08,04,06,58,17.40
2009,08,04,06,59,17.40
2009,08,04,07,00,17.40
2009,08,04,07,01,17.40
2009,08,04,07,02,17.40
2009,08,04,07,03,17.40
2009,08,04,07,04,17.40
2009,08,04,07,05,17.40
2009,08,04,07,06,17.40
2009,08,04,07,07,17.40
2009,08,04,07,08,17.40
2009,08,04,07,09,17.40
2009,08,04,07,10,17.40
2009,08,04,07,11,17.40
2009,08,04,07,12,17.40
2009,08,04,07,13,17.50
2009,08,04,07,14,17.50
2009,08,04,07,15,17.50
2009,08,04,07,16,17.50
2009,08,04,07,17,17.50
2009,08,04,07,18,17.50
2009,08,04,07,19,17.50
2009,08,04,07,20,17.40
2009,08,04,07,21,17.40
2009,08,04,07,22,17.40
2009,08,04,07,23,17.40
2009,08,04,07,24,17.40
2009,08,04,07,25,17.40
2009,08,04,07,26,17.40
2009,08,04,07,27,17.40
2009,08,04,07,28,17.40
2009,08,04,07,29,17.40
2009,08,04,07,30,17.40
2009,08,04,07,31,17.40
2009,08,04,07,32,17.40
2009,08,04,07,33,17.50
2009,08,04,07,34,17.50
2009,08,04,07,35,17.40
2009,08,04,07,36,17.40
2009,08,04,07,37,17.40
2009,08,04,07,38,17.40
2009,08,04,07,39,17.40
2009,08,04,07,40,17.40
2009,08,04,07,41,17.40
2009,08,04,07,42,17.40
2009,08,04,07,43,17.40
2009,08,04,07,44,17.40
2009,08,04,07,45,17.50
2009,08,04,07,46,17.50
2009,08,04,07,47,17.50
2009,08,04,07,48,17.50
2009,08,04,07,49,17.60
2009,08,04,07,50,17.60
2009,08,04,07,51,17.60
2009,08,04,07,52,17.60
2009,08,04,07,53,17.60
2009,08,04,07,54,17.60
2009,08,04,07,55,17.60
2009,08,04,07,56,17.70
2009,08,04,07,57,17.70
2009,08,04,07,58,17.70
2009,08,04,07,59,17.70
2009,08,04,08,00,17.70
2009,08,04,08,01,17.70
2009,08,04,08,02,17.70
2009,08,04,08,03,17.80
2009,08,04,08,04,17.80
2009,08,04,08,05,17.80
2009,08,04,08,06,17.80
2009,08,04,08,07,17.80
2009,08,04,08,08,17.80
2009,08,04,08,09,17.90
2009,08,04,08,10,17.90
2009,08,04,08,11,17.90
2009,08,04,08,12,18.00
2009,08,04,08,13,18.00
2009,08,04,08,14,18.10
2009,08,04,08,15,18.10
2009,08,04,08,16,18.10
2009,08,04,08,17,18.20
2009,08,04,08,18,18.20
2009,08,04,08,19,18.20
2009,08,04,08,20,18.30
2009,08,04,08,21,18.30
2009,08,04,08,22,18.40
2009,08,04,08,23,18.40
2009,08,04,08,24,18.50
2009,08,04,08,25,18.60
2009,08,04,08,26,18.60
2009,08,04,08,27,18.60
2009,08,04,08,28,18.60
2009,08,04,08,29,18.60
2009,08,04,08,30,18.60
2009,08,04,08,31,18.60
2009,08,04,08,32,18.60
2009,08,04,08,33,18.60
2009,08,04,08,34,18.60
2009,08,04,08,35,18.70
2009,08,04,08,36,18.70
2009,08,04,08,37,18.70
2009,08,04,08,38,18.70
2009,08,04,08,39,18.70
2009,08,04,08,40,18.80
2009,08,04,08,41,18.80
2009,08,04,08,42,18.90
2009,08,04,08,43,18.90
2009,08,04,08,44,18.90
2009,08,04,08,45,19.00
2009,08,04,08,46,19.10
2009,08,04,08,47,19.10
2009,08,04,08,48,19.20
2009,08,04,08,49,19.20
2009,08,04,08,50,19.30
2009,08,04,08,51,19.40
2009,08,04,08,52,19.50
2009,08,04,08,53,19.70
2009,08,04,08,54,19.80
2009,08,04,08,55,19.70
2009,08,04,08,56,19.70
2009,08,04,08,57,19.80
2009,08,04,08,58,19.80
2009,08,04,08,59,19.80
2009,08,04,09,00,19.80
2009,08,04,09,01,19.80
2009,08,04,09,02,19.80
2009,08,04,09,03,19.80
2009,08,04,09,04,19.80
2009,08,04,09,05,19.80
2009,08,04,09,06,19.90
2009,08,04,09,07,19.90
2009,08,04,09,08,20.00
2009,08,04,09,09,20.00
2009,08,04,09,10,20.10
2009,08,04,09,11,20.10
2009,08,04,09,12,20.20
2009,08,04,09,13,20.20
2009,08,04,09,14,20.20
2009,08,04,09,15,20.20
2009,08,04,09,16,20.20
2009,08,04,09,17,20.20
2009,08,04,09,18,20.30
2009,08,04,09,19,20.30
2009,08,04,09,20,20.40
2009,08,04,09,21,20.60
2009,08,04,09,22,20.70
2009,08,04,09,23,20.70
2009,08,04,09,24,20.70
2009,08,04,09,25,20.70
2009,08,04,09,26,20.60
2009,08,04,09,27,20.60
2009,08,04,09,28,20.60
2009,08,04,09,29,20.50
2009,08,04,09,30,20.50
2009,08,04,09,31,20.50
2009,08,04,09,32,20.50
2009,08,04,09,33,20.50
2009,08,04,09,34,20.50
2009,08,04,09,35,20.40
2009,08,04,09,36,20.40
2009,08,04,09,37,20.50
2009,08,04,09,38,20.50
2009,08,04,09,39,20.60
2009,08,04,09,40,20.60
2009,08,04,09,41,20.60
2009,08,04,09,42,20.50
2009,08,04,09,43,20.50
2009,08,04,09,44,20.50
2009,08,04,09,45,20.50
2009,08,04,09,46,20.50
2009,08,04,09,47,20.40
2009,08,04,09,48,20.40
2009,08,04,09,49,20.30
2009,08,04,09,50,20.30
2009,08,04,09,51,20.30
2009,08,04,09,52,20.20
2009,08,04,09,53,20.10
2009,08,04,09,54,20.10
2009,08,04,09,55,20.10
2009,08,04,09,56,20.00
2009,08,04,09,57,20.00
2009,08,04,09,58,19.90
2009,08,04,09,59,19.90
2009,08,04,10,00,19.80
2009,08,04,10,01,19.80
2009,08,04,10,02,19.70
2009,08,04,10,03,19.70
2009,08,04,10,04,19.70
2009,08,04,10,05,19.60
2009,08,04,10,06,19.60
2009,08,04,10,07,19.60
2009,08,04,10,08,19.60
2009,08,04,10,09,19.60
2009,08,04,10,10,19.60
2009,08,04,10,11,19.60
2009,08,04,10,12,19.60
2009,08,04,10,13,19.60
2009,08,04,10,14,19.60
2009,08,04,10,15,19.60
2009,08,04,10,16,19.60
2009,08,04,10,17,19.50
2009,08,04,10,18,19.40
2009,08,04,10,19,19.40
2009,08,04,10,20,19.40
2009,08,04,10,21,19.50
2009,08,04,10,22,19.60
2009,08,04,10,23,19.70
2009,08,04,10,24,19.70
2009,08,04,10,25,19.80
2009,08,04,10,26,19.70
2009,08,04,10,27,19.70
2009,08,04,10,28,19.70
2009,08,04,10,29,19.70
2009,08,04,10,30,19.80
2009,08,04,10,31,19.80
2009,08,04,10,32,19.80
2009,08,04,10,33,19.80
2009,08,04,10,34,19.80
2009,08,04,10,35,19.80
2009,08,04,10,36,19.90
2009,08,04,10,37,20.00
2009,08,04,10,38,20.10
2009,08,04,10,39,20.10
2009,08,04,10,40,20.10
2009,08,04,10,41,20.00
2009,08,04,10,42,19.90
2009,08,04,10,43,19.90
2009,08,04,10,44,19.90
2009,08,04,10,45,19.90
2009,08,04,10,46,19.80
2009,08,04,10,47,19.80
2009,08,04,10,48,19.80
2009,08,04,10,49,19.90
2009,08,04,10,50,20.00
2009,08,04,10,51,20.10
2009,08,04,10,52,20.20
2009,08,04,10,53,20.30
2009,08,04,10,54,20.30
2009,08,04,10,55,20.20
2009,08,04,10,56,20.10
2009,08,04,10,57,20.00
2009,08,04,10,58,20.00
2009,08,04,10,59,19.90
2009,08,04,11,00,19.90
2009,08,04,11,01,19.90
2009,08,04,11,02,19.90
2009,08,04,11,03,20.00
2009,08,04,11,04,20.00
2009,08,04,11,05,19.90
2009,08,04,11,06,20.00
2009,08,04,11,07,20.00
2009,08,04,11,08,20.00
2009,08,04,11,09,20.00
2009,08,04,11,10,19.90
2009,08,04,11,11,19.90
2009,08,04,11,12,19.90
2009,08,04,11,13,19.90
2009,08,04,11,14,19.90
2009,08,04,11,15,19.90
2009,08,04,11,16,19.90
2009,08,04,11,17,20.00
2009,08,04,11,18,20.10
2009,08,04,11,19,20.20
2009,08,04,11,20,20.30
2009,08,04,11,21,20.40
2009,08,04,11,22,20.40
2009,08,04,11,23,20.40
2009,08,04,11,24,20.40
2009,08,04,11,25,20.30
2009,08,04,11,26,20.20
2009,08,04,11,27,20.10
2009,08,04,11,28,19.90
2009,08,04,11,29,20.00
2009,08,04,11,30,20.10
2009,08,04,11,31,20.00
2009,08,04,11,32,19.90
2009,08,04,11,33,19.80
2009,08,04,11,34,19.70
2009,08,04,11,35,19.70
2009,08,04,11,36,19.70
2009,08,04,11,37,19.90
2009,08,04,11,38,20.20
2009,08,04,11,39,20.20
2009,08,04,11,40,20.30
2009,08,04,11,41,20.30
2009,08,04,11,42,20.20
2009,08,04,11,43,20.20
2009,08,04,11,44,20.10
2009,08,04,11,45,20.10
2009,08,04,11,46,20.10
2009,08,04,11,47,20.20
2009,08,04,11,48,20.30
2009,08,04,11,49,20.40
2009,08,04,11,50,20.30
2009,08,04,11,51,20.30
2009,08,04,11,52,20.40
2009,08,04,11,53,20.40
2009,08,04,11,54,20.40
2009,08,04,11,55,20.30
2009,08,04,11,56,20.30
2009,08,04,11,57,20.30
2009,08,04,11,58,20.30
2009,08,04,11,59,20.50
2009,08,04,12,00,20.70
2009,08,04,12,01,20.80
2009,08,04,12,02,20.80
2009,08,04,12,03,20.80
2009,08,04,12,04,20.70
2009,08,04,12,05,20.70
2009,08,04,12,06,20.70
2009,08,04,12,07,20.80
2009,08,04,12,08,20.80
2009,08,04,12,09,20.80
2009,08,04,12,10,20.80
2009,08,04,12,11,20.60
2009,08,04,12,12,20.50
2009,08,04,12,13,20.40
2009,08,04,12,14,20.40
2009,08,04,12,15,20.30
2009,08,04,12,16,20.30
2009,08,04,12,17,20.30
2009,08,04,12,18,20.30
2009,08,04,12,19,20.40
2009,08,04,12,20,20.50
2009,08,04,12,21,20.60
2009,08,04,12,22,20.70
2009,08,04,12,23,20.70
2009,08,04,12,24,20.80
2009,08,04,12,25,20.90
2009,08,04,12,26,20.90
2009,08,04,12,27,21.00
2009,08,04,12,28,21.10
2009,08,04,12,29,21.10
2009,08,04,12,30,21.00
2009,08,04,12,31,20.90
2009,08,04,12,32,20.90
2009,08,04,12,33,20.90
2009,08,04,12,34,20.90
2009,08,04,12,35,21.00
2009,08,04,12,36,21.10
2009,08,04,12,37,21.10
2009,08,04,12,38,21.10
2009,08,04,12,39,21.00
2009,08,04,12,40,21.00
2009,08,04,12,41,21.00
2009,08,04,12,42,21.00
2009,08,04,12,43,21.00
2009,08,04,12,44,21.00
2009,08,04,12,45,21.00
2009,08,04,12,46,20.90
2009,08,04,12,47,20.90
2009,08,04,12,48,20.80
2009,08,04,12,49,20.80
2009,08,04,12,50,20.90
2009,08,04,12,51,21.00
2009,08,04,12,52,21.00
2009,08,04,12,53,21.10
2009,08,04,12,54,21.00
2009,08,04,12,55,20.90
2009,08,04,12,56,20.90
2009,08,04,12,57,21.00
2009,08,04,12,58,21.00
2009,08,04,12,59,21.00
2009,08,04,13,00,20.90
2009,08,04,13,01,20.90
2009,08,04,13,02,20.80
2009,08,04,13,03,20.80
2009,08,04,13,04,20.80
2009,08,04,13,05,20.70
2009,08,04,13,06,20.60
2009,08,04,13,07,20.60
2009,08,04,13,08,20.50
2009,08,04,13,09,20.50
2009,08,04,13,10,20.40
2009,08,04,13,11,20.40
2009,08,04,13,12,20.30
2009,08,04,13,13,20.30
2009,08,04,13,14,20.20
2009,08,04,13,15,20.20
2009,08,04,13,16,20.20
2009,08,04,13,17,20.20
2009,08,04,13,18,20.20
2009,08,04,13,19,20.30
2009,08,04,13,20,20.30
2009,08,04,13,21,20.30
2009,08,04,13,22,20.30
2009,08,04,13,23,20.30
2009,08,04,13,24,20.30
2009,08,04,13,25,20.30
2009,08,04,13,26,20.30
2009,08,04,13,27,20.30
2009,08,04,13,28,20.30
2009,08,04,13,29,20.40
2009,08,04,13,30,20.40
2009,08,04,13,31,20.50
2009,08,04,13,32,20.60
2009,08,04,13,33,20.60
2009,08,04,13,34,20.70
2009,08,04,13,35,20.80
2009,08,04,13,36,20.90
2009,08,04,13,37,21.00
2009,08,04,13,38,21.00
2009,08,04,13,39,20.90
2009,08,04,13,40,20.90
2009,08,04,13,41,20.90
2009,08,04,13,42,21.00
2009,08,04,13,43,21.20
2009,08,04,13,44,21.20
2009,08,04,13,45,21.20
2009,08,04,13,46,21.30
2009,08,04,13,47,21.40
2009,08,04,13,48,21.40
2009,08,04,13,49,21.30
2009,08,04,13,50,21.30
2009,08,04,13,51,21.20
2009,08,04,13,52,21.20
2009,08,04,13,53,21.20
2009,08,04,13,54,21.20
2009,08,04,13,55,21.20
2009,08,04,13,56,21.20
2009,08,04,13,57,21.10
2009,08,04,13,58,21.10
2009,08,04,13,59,21.00
2009,08,04,14,00,21.00
2009,08,04,14,01,20.90
2009,08,04,14,02,20.90
2009,08,04,14,03,20.80
2009,08,04,14,04,20.80
2009,08,04,14,05,20.70
2009,08,04,14,06,20.80
2009,08,04,14,07,20.80
2009,08,04,14,08,20.90
2009,08,04,14,09,20.90
2009,08,04,14,10,20.90
2009,08,04,14,11,20.90
2009,08,04,14,12,20.90
2009,08,04,14,13,21.00
2009,08,04,14,14,21.00
2009,08,04,14,15,21.10
2009,08,04,14,16,21.10
2009,08,04,14,17,21.10
2009,08,04,14,18,21.10
2009,08,04,14,19,21.10
2009,08,04,14,20,21.10
2009,08,04,14,21,21.00
2009,08,04,14,22,21.10
2009,08,04,14,23,21.10
2009,08,04,14,24,21.20
2009,08,04,14,25,21.20
2009,08,04,14,26,21.30
2009,08,04,14,27,21.30
2009,08,04,14,28,21.30
2009,08,04,14,29,21.20
2009,08,04,14,30,21.30
2009,08,04,14,31,21.30
2009,08,04,14,32,21.40
2009,08,04,14,33,21.40
2009,08,04,14,34,21.50
2009,08,04,14,35,21.50
2009,08,04,14,36,21.30
2009,08,04,14,37,21.20
2009,08,04,14,38,21.20
2009,08,04,14,39,21.20
2009,08,04,14,40,21.20
2009,08,04,14,41,21.20
2009,08,04,14,42,21.30
2009,08,04,14,43,21.30
2009,08,04,14,44,21.30
2009,08,04,14,45,21.30
2009,08,04,14,46,21.30
2009,08,04,14,47,21.30
2009,08,04,14,48,21.40
2009,08,04,14,49,21.50
2009,08,04,14,50,21.60
2009,08,04,14,51,21.70
2009,08,04,14,52,21.70
2009,08,04,14,53,21.80
2009,08,04,14,54,21.70
2009,08,04,14,55,21.70
2009,08,04,14,56,21.70
2009,08,04,14,57,21.70
2009,08,04,14,58,21.80
2009,08,04,14,59,21.80
2009,08,04,15,00,21.70
2009,08,04,15,01,21.60
2009,08,04,15,02,21.60
2009,08,04,15,03,21.60
2009,08,04,15,04,21.60
2009,08,04,15,05,21.60
2009,08,04,15,06,21.50
2009,08,04,15,07,21.50
2009,08,04,15,08,21.40
2009,08,04,15,09,21.40
2009,08,04,15,10,21.40
2009,08,04,15,11,21.30
2009,08,04,15,12,21.30
2009,08,04,15,13,21.30
2009,08,04,15,14,21.30
2009,08,04,15,15,21.40
2009,08,04,15,16,21.40
2009,08,04,15,17,21.40
2009,08,04,15,18,21.50
2009,08,04,15,19,21.60
2009,08,04,15,20,21.60
2009,08,04,15,21,21.60
2009,08,04,15,22,21.70
2009,08,04,15,23,21.60
2009,08,04,15,24,21.60
2009,08,04,15,25,21.60
2009,08,04,15,26,21.60
2009,08,04,15,27,21.70
2009,08,04,15,28,21.70
2009,08,04,15,29,21.70
2009,08,04,15,30,21.70
2009,08,04,15,31,21.60
2009,08,04,15,32,21.50
2009,08,04,15,33,21.40
2009,08,04,15,34,21.30
2009,08,04,15,35,21.30
2009,08,04,15,36,21.30
2009,08,04,15,37,21.20
2009,08,04,15,38,21.30
2009,08,04,15,39,21.30
2009,08,04,15,40,21.30
2009,08,04,15,41,21.30
2009,08,04,15,42,21.30
2009,08,04,15,43,21.20
2009,08,04,15,44,21.10
2009,08,04,15,45,21.10
2009,08,04,15,46,21.10
2009,08,04,15,47,21.10
2009,08,04,15,48,21.20
2009,08,04,15,49,21.10
2009,08,04,15,50,21.00
2009,08,04,15,51,21.00
2009,08,04,15,52,21.00
2009,08,04,15,53,20.90
2009,08,04,15,54,21.00
2009,08,04,15,55,21.00
2009,08,04,15,56,21.00
2009,08,04,15,57,20.90
2009,08,04,15,58,20.80
2009,08,04,15,59,20.70
2009,08,04,16,00,20.60
2009,08,04,16,01,20.60
2009,08,04,16,02,20.60
2009,08,04,16,03,20.70
2009,08,04,16,04,20.60
2009,08,04,16,05,20.60
2009,08,04,16,06,20.60
2009,08,04,16,07,20.60
2009,08,04,16,08,20.60
2009,08,04,16,09,20.60
2009,08,04,16,10,20.50
2009,08,04,16,11,20.40
2009,08,04,16,12,20.40
2009,08,04,16,13,20.30
2009,08,04,16,14,20.30
2009,08,04,16,15,20.20
2009,08,04,16,16,20.20
2009,08,04,16,17,20.20
2009,08,04,16,18,20.20
2009,08,04,16,19,20.20
2009,08,04,16,20,20.20
2009,08,04,16,21,20.30
2009,08,04,16,22,20.30
2009,08,04,16,23,20.40
2009,08,04,16,24,20.40
2009,08,04,16,25,20.40
2009,08,04,16,26,20.40
2009,08,04,16,27,20.40
2009,08,04,16,28,20.40
2009,08,04,16,29,20.40
2009,08,04,16,30,20.50
2009,08,04,16,31,20.60
2009,08,04,16,32,20.60
2009,08,04,16,33,20.70
2009,08,04,16,34,20.70
2009,08,04,16,35,20.80
2009,08,04,16,36,20.90
2009,08,04,16,37,20.90
2009,08,04,16,38,20.90
2009,08,04,16,39,20.90
2009,08,04,16,40,21.00
2009,08,04,16,41,21.10
2009,08,04,16,42,21.10
2009,08,04,16,43,21.20
2009,08,04,16,44,21.30
2009,08,04,16,45,21.40
2009,08,04,16,46,21.50
2009,08,04,16,47,21.50
2009,08,04,16,48,21.50
2009,08,04,16,49,21.50
2009,08,04,16,50,21.40
2009,08,04,16,51,21.40
2009,08,04,16,52,21.50
2009,08,04,16,53,21.50
2009,08,04,16,54,21.40
2009,08,04,16,55,21.50
2009,08,04,16,56,21.50
2009,08,04,16,57,21.50
2009,08,04,16,58,21.50
2009,08,04,16,59,21.40
2009,08,04,17,00,21.40
2009,08,04,17,01,21.40
2009,08,04,17,02,21.50
2009,08,04,17,03,21.50
2009,08,04,17,04,21.60
2009,08,04,17,05,21.60
2009,08,04,17,06,21.70
2009,08,04,17,07,21.70
2009,08,04,17,08,21.70
2009,08,04,17,09,21.70
2009,08,04,17,10,21.80
2009,08,04,17,11,21.80
2009,08,04,17,12,21.80
2009,08,04,17,13,21.90
2009,08,04,17,14,21.90
2009,08,04,17,15,21.90
2009,08,04,17,16,21.90
2009,08,04,17,17,21.90
2009,08,04,17,18,21.90
2009,08,04,17,19,21.90